[[{"header":{"parameterUnit":"m.s-1","parameterCategory":1,"la1":30.2992,"la2":30.254,"lo1":-89.0895,"lo2":-89.0443,"dy":0.0025,"dx":0.0025,"nx":19,"ny":19,"refTime":"2026-04-11T03:00:00:Z","depth":0,"parameterNumber":2,"parameterNumberName":"U-component_of_WINDS"},"data":[0,0,0,-2.2299,-2.2297,-2.2172,-2.2171,-2.2028,-2.2027,0,0,0,0,0,0,0,0,0,0,0,-2.2346,-2.2345,-2.23,-2.2297,-2.2172,-2.2171,-2.2028,-2.2027,0,0,0,0,0,0,0,0,0,0,0,-2.2346,-2.2345,-2.2345,-2.2296,-2.2172,-2.2171,-2.2029,-2.2117,0,0,0,0,0,0,0,0,0,0,-2.2236,-2.2287,-2.2346,-2.2345,-2.2296,-2.2172,-2.2171,-2.2121,-2.2112,-2.2092,0,-2.2077,0,-2.205,-2.2019,-2.2018,0,0,0,-2.2289,-2.2295,-2.2254,-2.2345,-2.2295,-2.2173,-2.2226,-2.2116,-2.2105,-2.2079,-2.2074,-2.2069,-2.2047,-2.2018,-2.2017,-2.1929,-2.1929,0,0,-2.2296,-2.2328,-2.2261,-2.2247,-2.2267,-2.223,-2.2223,-2.2109,-2.2105,-2.2074,-2.2065,-2.2045,-2.2017,-2.2016,-2.1929,-2.1929,0,0,0,-2.2321,-2.2333,-2.2294,-2.2253,-2.223,-2.2227,-2.2218,-2.211,-2.2095,-2.2063,-2.2043,-2.2016,-2.2015,-2.1929,-2.1929,-2.1958,0,0,0,-2.2325,-2.2348,-2.2297,-2.2315,-2.2232,-2.2168,-2.2222,-2.2103,-2.2089,-2.2044,-2.2016,-2.2013,-2.1929,-2.1929,-2.1957,-2.1966,0,0,0,-2.2351,-2.2351,-2.2336,-2.2317,-2.2265,-2.2169,-2.2147,-2.2099,-2.2077,-2.2018,-2.2013,-2.1929,-2.1929,-2.1957,-2.1965,-2.1953,0,0,0,-2.2387,-2.2361,-2.2337,-2.2301,-2.2266,-2.2188,-2.2147,-2.2087,-2.204,-2.2015,-2.1929,-2.1929,-2.1956,-2.1964,-2.1953,-2.195,-2.1951,0,0,-2.2372,-2.236,-2.2337,-2.2311,-2.2246,-2.2205,-2.2144,-2.2069,-2.2034,-2.1967,-2.1964,-2.1958,-2.1964,-2.1953,-2.1949,-2.1951,0,0,0,-2.2343,-2.2326,-2.2302,-2.2259,-2.2204,-2.2157,-2.2089,-2.2062,-2.2004,-2.2006,-2.1949,-2.1952,-2.1944,-2.1941,-2.1943,-2.1935,-2.1929,-2.1929,-2.1929,-2.2366,-2.2324,-2.2283,-2.2227,-2.2187,-2.2119,-2.2083,-2.2035,-2.2003,-2.1991,-2.197,-2.1973,-2.197,-2.1971,-2.1963,-2.1965,-2.1965,-2.1965,-2.1965,-2.234,-2.231,-2.2272,-2.2218,-2.2175,-2.2129,-2.2065,-2.2045,-2.1996,-2.1984,-2.1975,-2.1965,-2.1974,-2.1965,-2.1967,-2.1967,-2.1966,-2.1966,-2.1966,-2.235,-2.2329,-2.2298,-2.2235,-2.2192,-2.2136,-2.2093,-2.2055,-2.2018,-2.2009,-2.1985,-2.1984,-2.1979,-2.2001,-2.2001,-2.2001,-2.2001,-2.2001,-2.2001,-2.2373,-2.2337,-2.2306,-2.2248,-2.2217,-2.2172,-2.2107,-2.2076,-2.2032,-2.2008,-2.2008,-2.1978,-2.1983,-2.1985,-2.2001,-2.2001,-2.2001,-2.2001,-2.2001,-2.2361,-2.2359,-2.231,-2.228,-2.221,-2.2171,-2.2124,-2.2066,-2.2035,-2.2015,-2.1989,-2.1998,-2.1983,-2.1982,-2.1983,-2.1997,-2.1997,-2.1997,-2.1997,-2.237,-2.236,-2.2303,-2.2258,-2.221,-2.2164,-2.2112,-2.2064,-2.2012,-2.1991,-2.1983,-2.1983,-2.1983,-2.1967,-2.1966,-2.1967,-2.1977,-2.1977,-2.1977,-2.2362,-2.2346,-2.2308,-2.2259,-2.2203,-2.2156,-2.2107,-2.2058,-2.1999,-2.1975,-2.1974,-2.1975,-2.1973,-2.1974,-2.1948,-2.1948,-2.1948,0,0]},{"header":{"parameterUnit":"m.s-1","parameterCategory":1,"la1":30.2992,"la2":30.254,"lo1":-89.0895,"lo2":-89.0443,"dy":0.0025,"dx":0.0025,"nx":19,"ny":19,"refTime":"2026-04-11T03:00:00:Z","depth":0,"parameterNumber":3,"parameterNumberName":"V-component_of_WINDS"},"data":[0,0,0,1.807,1.807,1.8064,1.8064,1.8039,1.8039,0,0,0,0,0,0,0,0,0,0,0,1.8063,1.8063,1.807,1.807,1.8064,1.8064,1.8039,1.8039,0,0,0,0,0,0,0,0,0,0,0,1.8063,1.8063,1.8062,1.807,1.8064,1.8064,1.8039,1.8049,0,0,0,0,0,0,0,0,0,0,1.8058,1.8044,1.8063,1.8062,1.8069,1.8063,1.8064,1.805,1.8049,1.8035,0,1.8023,0,1.803,1.8036,1.8036,0,0,0,1.8075,1.8045,1.8051,1.8062,1.8069,1.8063,1.8068,1.805,1.8048,1.8033,1.8022,1.8022,1.803,1.8036,1.8036,1.7942,1.7941,0,0,1.8076,1.8057,1.8052,1.805,1.8052,1.8068,1.8068,1.8049,1.8035,1.8022,1.8022,1.803,1.8036,1.8035,1.7943,1.7942,0,0,0,1.8073,1.8057,1.8064,1.805,1.8051,1.8068,1.8067,1.8036,1.804,1.8021,1.8029,1.8036,1.8035,1.7944,1.7943,1.7888,0,0,0,1.8073,1.8055,1.8064,1.8052,1.8051,1.8043,1.8054,1.8041,1.8039,1.8029,1.8036,1.8035,1.7945,1.7943,1.7891,1.7863,0,0,0,1.8066,1.8055,1.8051,1.8051,1.8048,1.8044,1.8047,1.8041,1.8044,1.8036,1.8035,1.7945,1.7943,1.7894,1.7868,1.7832,0,0,0,1.8053,1.8002,1.805,1.7996,1.8048,1.8012,1.8048,1.8021,1.8008,1.8035,1.7944,1.7943,1.7895,1.7871,1.7835,1.7795,1.7778,0,0,1.7978,1.7992,1.7963,1.8005,1.7955,1.8014,1.7956,1.7961,1.7978,1.7953,1.7951,1.789,1.7869,1.7832,1.7693,1.7679,0,0,0,1.7932,1.791,1.7901,1.7889,1.7893,1.7893,1.791,1.7913,1.7893,1.7962,1.7869,1.7857,1.7836,1.7818,1.7806,1.7788,1.7935,1.7935,1.7935,1.7796,1.7821,1.7772,1.7796,1.7784,1.7803,1.7794,1.78,1.7828,1.7806,1.7797,1.771,1.7688,1.768,1.7661,1.7782,1.7782,1.7781,1.7781,1.7685,1.7656,1.7697,1.7664,1.7691,1.7663,1.768,1.7701,1.7677,1.7719,1.7702,1.7742,1.7664,1.7648,1.7777,1.7778,1.7779,1.7779,1.7779,1.7595,1.7586,1.7591,1.7576,1.7562,1.7589,1.7565,1.7591,1.7614,1.7598,1.759,1.7591,1.7592,1.7593,1.7593,1.7593,1.7593,1.7592,1.7592,1.7498,1.7506,1.7484,1.7485,1.7481,1.7478,1.7498,1.7494,1.7496,1.7516,1.7516,1.7544,1.7653,1.7678,1.7587,1.7588,1.7589,1.7589,1.759,1.737,1.7404,1.7368,1.7364,1.7368,1.7351,1.7386,1.7375,1.7376,1.7363,1.7397,1.7474,1.749,1.7499,1.7519,1.7394,1.7394,1.7394,1.7393,1.7291,1.7303,1.7273,1.7264,1.7259,1.7287,1.7244,1.726,1.7281,1.7282,1.7305,1.7336,1.7345,1.7355,1.7368,1.7386,1.723,1.723,1.7229,1.7212,1.7225,1.7183,1.7207,1.7212,1.7216,1.7176,1.7163,1.7194,1.7223,1.7283,1.729,1.734,1.7356,1.7381,1.74,1.7435,0,0]}]]